Home > Weather > Dornbirn > Past weeks

Flag for Austria Weather for the Past 2 Weeks in Dornbirn, Vorarlberg, Austria

Now
41 °F

Passing clouds.


Feels Like: 29 °F
Forecast: 35 / 40 °F
Wind: 32 mph from Northwest

Location: Saint Gallen-Altenrhein

Current Time: Feb 10, 2016 at 12:12:55 AM

Latest Report: Feb 9, 2016 at 11:20 PM


Visibility: N/A

Pressure: 29.42 "Hg

Humidity: 76%

Dew point: 34 °F

Location of DornbirnLocation

Historic Weather in Dornbirn — Graph

°F

Dornbirn Temperature Yesterday

Maximum temperature yesterday: 59 °F (at 12:20 PM)
Minimum temperature yesterday: 41 °F (at 8:50 PM)
Average temperature yesterday: 47 °F

High & Low Weather Summary for the Past Weeks

 TemperatureHumidityPressure
High61 °F (Feb 7, 10:20 AM)100% (Jan 25, 11:20 PM)30.48 "Hg (Jan 25, 11:20 PM)
Low30 °F (Jan 26, 2:20 AM)29% (Feb 6, 10:50 PM)29.30 "Hg (Feb 9, 4:20 PM)
Average44 °F82%30.14 "Hg
* Reported Jan 25 11:20 PM — Feb 9 11:20 PM, Dornbirn, Weather by CustomWeather, © 2016

Note: Actual official high and low records may vary slightly from our data, if they occured in-between our weather recording intervals... More about our weather records

Advertising

Dornbirn Weather History for the Previous 24 Hours

 ConditionsComfort  
Time TempWeatherWind HumidityBarometerVisibility
11:20 PM
Tue, Feb 9
41 °FPassing clouds.32 mph76%29.42 "HgN/A
10:20 PM46 °FPartly cloudy.13 mph50%29.39 "HgN/A
9:50 PM46 °FPassing clouds.21 mph53%29.36 "HgN/A
9:20 PM45 °FPassing clouds.26 mph61%29.36 "HgN/A
8:50 PM41 °FSprinkles. Passing clouds.22 mph81%29.39 "HgN/A
8:20 PM43 °FSprinkles. Passing clouds.28 mph81%29.39 "HgN/A
7:50 PM52 °FPartly cloudy.7 mph54%29.30 "HgN/A
7:20 PM54 °FPartly cloudy.5 mph47%29.30 "HgN/A
6:50 PM55 °FPartly cloudy.6 mph41%29.30 "HgN/A
6:20 PM57 °FLight rain. Partly cloudy.15 mph36%29.30 "HgN/A
5:50 PM46 °FLight rain. Partly cloudy.7 mph82%29.33 "HgN/A
5:20 PM48 °FPartly sunny.3 mph76%29.33 "HgN/A
4:50 PM46 °FPartly sunny.10 mph82%29.33 "HgN/A
4:20 PM45 °FPartly sunny.9 mph87%29.30 "HgN/A
3:20 PM45 °FBroken clouds.7 mph87%29.36 "HgN/A
2:50 PM46 °FBroken clouds.5 mph82%29.36 "HgN/A
2:20 PM45 °FBroken clouds.6 mph87%29.42 "HgN/A
1:50 PM45 °FBroken clouds.9 mph87%29.42 "HgN/A
1:20 PM59 °FBroken clouds.13 mph31%29.45 "HgN/A
12:50 PM59 °FBroken clouds.12 mph31%29.45 "HgN/A
12:20 PM59 °FBroken clouds.20 mph31%29.50 "HgN/A
11:20 AM50 °FBroken clouds.14 mph76%29.53 "HgN/A
10:50 AM46 °FBroken clouds.9 mph82%29.59 "HgN/A
10:20 AM46 °FLight rain. Broken clouds.5 mph76%29.62 "HgN/A
9:50 AM46 °FBroken clouds.3 mph76%29.62 "HgN/A
9:20 AM46 °FBroken clouds.3 mph76%29.65 "HgN/A
8:50 AM43 °FPassing clouds.5 mph93%29.68 "HgN/A
8:20 AM45 °FSunny.3 mph87%29.68 "Hg10 mi
7:50 AM43 °FPartly sunny.3 mph87%29.71 "HgN/A
7:20 AM45 °FPassing clouds.2 mph81%29.71 "HgN/A
6:50 AM45 °FPassing clouds.5 mph81%29.74 "HgN/A
6:20 AM43 °FLight rain. Passing clouds.5 mph87%29.74 "HgN/A
5:50 AM43 °FPassing clouds.3 mph87%29.74 "HgN/A
5:20 AM43 °FOvercast.3 mph87%29.77 "HgN/A
4:50 AM45 °FClear.3 mph81%29.80 "HgN/A
4:20 AM45 °FPartly cloudy.6 mph81%29.80 "HgN/A
3:50 AM46 °FClear.9 mph76%29.80 "HgN/A
3:20 AM46 °FPartly cloudy.7 mph82%29.83 "HgN/A
2:20 AM46 °FSprinkles. Passing clouds.12 mph82%29.86 "HgN/A
1:50 AM48 °FRain showers. Partly cloudy.20 mph71%29.86 "Hg4 mi
1:20 AM52 °FLight rain. Passing clouds.14 mph54%29.83 "HgN/A
12:50 AM52 °FClear.12 mph54%29.83 "HgN/A
12:20 AM52 °FOvercast.10 mph54%29.83 "HgN/A
Weather by CustomWeather, © 2016

See weather overviewHow to use our weather pages